Voltar ao catálogo

STARLINK-38108

AtivoComunicaçõesVLEO
NORAD 100024·PAYLOAD·🇺🇸 United States

Lançado Jul 14, 2026 de Vandenberg Space Force Base

Loading…

Próximas Passagens (próximas 24 horas)

TLE

AtualizadoSource: Space-Track

Época: Sep 14, 2026, 22:26 UTC

1 A0024U 26160Z   26257.93540253 -.00310428  00000-0 -21098-2 0  9996
2 A0024  70.0010 210.7518 0007102 292.6103  67.4344 15.75471714 11117

Acompanhe STARLINK-38108 em tempo real com AllMySat

Download on the App Store